STARLINK-34819 (65040 NORAD) Tracking and Keplerian Element Data

This shows tracking and keplerian element data for the satellite.

Feedback or suggestion? Click here.




ElementValue
Catalog65040
NameSTARLINK-34819
Epoch Orbit2204
Epoch Day354.12906364
Epoch Year2025
RAAN304.1129
Inclination53.161
Eccentricity0.000236
Argument of Perigee87.7006
Mean Anonmoly272.4265
Mean Motion15.30210814
Decay Rate0.00020804
L11 65040U 25161AB 25354.12906364 .00020804 00000+0 71232-3 0 9991
L22 65040 53.1610 304.1129 0002360 87.7006 272.4265 15.30210814 22043



Live tracking and technical data element details for STARLINK-34819 (NORAD 65040). STARLINK-34819 can be tracked NOW for your location showing map with azimuth and elevation plus other details from your city location.







IsCatalogInMostPopularTable: catalog: 65040, numindb: 6
Update: records affected: 1



GetName: 65040 STARLINK-34819

Hit Count: updated at: Tue, 17 Feb 2026 12:51:07 GMT